TimeCDT,TemperatureF,Dew PointF,Humidity,Sea Level PressureIn,VisibilityMPH,Wind Direction,Wind SpeedMPH,Gust SpeedMPH,PrecipitationIn,Events,Conditions,WindDirDegrees,DateUTC
12:46 AM,53.6,50.0,88,29.81,3.0,Calm,Calm,-,N/A,,Mostly Cloudy,0,2013-07-03 05:46:00
1:47 AM,53.6,50.0,88,30.40,3.0,ESE,4.6,-,N/A,,Mostly Cloudy,120,2013-07-03 06:47:00
2:41 AM,51.8,48.2,88,30.38,3.0,East,5.8,-,N/A,,Mostly Cloudy,100,2013-07-03 07:41:00
4:49 AM,50.0,48.2,94,30.35,2.0,Calm,Calm,-,N/A,,Overcast,0,2013-07-03 09:49:00
5:42 AM,50.0,48.2,94,30.34,2.0,Calm,Calm,-,N/A,,Overcast,0,2013-07-03 10:42:00
6:01 AM,48.2,44.6,87,30.34,1.0,Calm,Calm,-,N/A,,Overcast,0,2013-07-03 11:01:00
6:45 AM,50.0,46.4,87,29.87,0.5,Calm,Calm,-,N/A,Fog,Fog,0,2013-07-03 11:45:00
7:08 AM,50.0,46.4,87,30.36,0.2,Calm,Calm,-,N/A,Fog,Fog,0,2013-07-03 12:08:00
7:30 AM,50.0,46.4,87,30.37,0.2,Calm,Calm,-,N/A,Fog,Fog,0,2013-07-03 12:30:00
8:03 AM,50.0,48.2,94,30.38,0.2,Calm,Calm,-,N/A,Fog,Fog,0,2013-07-03 13:03:00
8:30 AM,51.8,48.2,88,30.38,0.2,Calm,Calm,-,N/A,Fog,Fog,0,2013-07-03 13:30:00
8:44 AM,51.8,48.2,88,30.38,0.2,Calm,Calm,-,N/A,Fog,Fog,0,2013-07-03 13:44:00
8:58 AM,51.8,50.0,94,30.39,0.2,Calm,Calm,-,N/A,Fog,Fog,0,2013-07-03 13:58:00
9:41 AM,53.6,50.0,88,29.90,2.0,WNW,5.8,-,N/A,,Scattered Clouds,290,2013-07-03 14:41:00
10:44 AM,55.4,51.8,88,30.39,3.0,NW,5.8,-,N/A,,Haze,320,2013-07-03 15:44:00
11:45 AM,62.6,50.0,63,30.38,5.0,NW,8.1,-,N/A,,Mostly Cloudy,320,2013-07-03 16:45:00
12:50 PM,64.4,50.0,59,29.81,6.0,West,5.8,-,N/A,,Mostly Cloudy,270,2013-07-03 17:50:00
1:46 PM,68.0,48.2,49,30.35,6.0,WSW,4.6,-,N/A,,Mostly Cloudy,240,2013-07-03 18:46:00
2:44 PM,71.6,48.2,43,30.32,6.0,ESE,5.8,-,N/A,,Mostly Cloudy,120,2013-07-03 19:44:00
3:40 PM,68.0,46.4,46,29.73,6.0,ENE,3.5,-,N/A,,Mostly Cloudy,60,2013-07-03 20:40:00
4:41 PM,69.8,50.0,49,30.27,6.0,South,12.7,-,N/A,,Mostly Cloudy,170,2013-07-03 21:41:00
5:43 PM,66.2,50.0,56,30.25,6.0,South,12.7,-,N/A,,Mostly Cloudy,170,2013-07-03 22:43:00
6:41 PM,64.4,51.8,64,29.73,6.0,SSE,12.7,-,N/A,,Mostly Cloudy,150,2013-07-03 23:41:00
7:23 PM,60.8,48.2,63,30.29,2.0,NNE,6.9,-,N/A,Rain,Light Rain,30,2013-07-04 00:23:00
7:41 PM,57.2,51.8,82,30.31,2.0,ESE,18.4,-,N/A,Rain-Thunderstorm,Thunderstorms and Rain,120,2013-07-04 00:41:00
8:40 PM,55.4,50.0,82,30.32,2.0,SSW,5.8,-,N/A,Rain-Thunderstorm,Light Thunderstorms and Rain,200,2013-07-04 01:40:00
9:42 PM,55.4,51.8,88,29.85,3.0,ENE,5.8,-,N/A,,Haze,60,2013-07-04 02:42:00
10:44 PM,55.4,51.8,88,30.37,2.0,NNE,5.8,-,N/A,Rain,Light Rain,20,2013-07-04 03:44:00
11:48 PM,55.4,51.8,88,30.31,3.0,Calm,Calm,-,N/A,,Haze,0,2013-07-04 04:48:00